Home > Weather > Nagoya > Past weeks

Flag for Japan Weather for the Past 2 Weeks in Nagoya, Japan

Now
48 °F

Scattered showers. Passing clouds.


Feels Like: 48 °F
Forecast: 40 / 59 °F
Wind: 2 mph from North

Location: Nagoya Airport

Current Time: Feb 13, 2016 at 2:24:01 AM

Latest Report: Feb 13, 2016 at 2:00 AM


Visibility: 4 mi

Pressure: 30.27 "Hg

Humidity: 82%

Dew point: 43 °F

Location of NagoyaLocation

Historic Weather in Nagoya — Graph

°F

Nagoya Temperature Yesterday

Maximum temperature yesterday: 48 °F (at 12:00 PM)
Minimum temperature yesterday: 43 °F (at 12:00 AM)
Average temperature yesterday: 46 °F

High & Low Weather Summary for the Past Weeks

 TemperatureHumidityPressure
High54 °F (Feb 5, 3:00 PM)94% (Jan 29, 9:00 PM)30.48 "Hg (Jan 29, 9:00 PM)
Low30 °F (Feb 8, 5:00 AM)32% (Feb 3, 1:00 PM)29.86 "Hg (Feb 9, 12:00 PM)
Average45 °F60%30.12 "Hg
* Reported Jan 29 1:00 AM — Feb 13 1:00 AM, Nagoya, Weather by CustomWeather, © 2016

Note: Actual official high and low records may vary slightly from our data, if they occured in-between our weather recording intervals... More about our weather records

Advertising

Nagoya Weather History for the Previous 24 Hours

 ConditionsComfort  
Time TempWeatherWind HumidityBarometerVisibility
1:00 AM
Sat, Feb 13
48 °FPassing clouds.5 mph82%30.27 "Hg4 mi
12:30 AM48 °FPassing clouds.6 mph82%30.27 "Hg4 mi
12:00 AM48 °FPartly cloudy.5 mph82%30.30 "Hg5 mi
11:30 PM
Fri, Feb 12
48 °FPartly cloudy.3 mph82%30.30 "Hg5 mi
11:00 PM48 °FPartly cloudy.3 mph82%30.30 "Hg5 mi
10:30 PM48 °FPartly cloudy.5 mph82%30.33 "Hg6 mi
10:00 PM48 °FPassing clouds.6 mph76%30.33 "HgN/A
9:30 PM48 °FPassing clouds.3 mph71%30.30 "HgN/A
9:00 PM48 °FPassing clouds.6 mph76%30.33 "HgN/A
8:30 PM48 °FPassing clouds.6 mph71%30.33 "HgN/A
8:00 PM48 °FScattered showers. Passing clouds.7 mph71%30.33 "HgN/A
7:30 PM48 °FPassing clouds.7 mph71%30.33 "HgN/A
7:00 PM48 °FPassing clouds.8 mph71%30.36 "HgN/A
6:30 PM48 °FPassing clouds.6 mph71%30.36 "HgN/A
6:00 PM48 °FPassing clouds.6 mph66%30.36 "Hg6 mi
5:30 PM48 °FPassing clouds.8 mph66%30.36 "Hg6 mi
5:00 PM48 °FPartly sunny.8 mph66%30.36 "Hg6 mi
4:30 PM48 °FBroken clouds.8 mph66%30.36 "Hg6 mi
4:00 PM48 °FBroken clouds.9 mph66%30.36 "Hg5 mi
3:30 PM48 °FBroken clouds.7 mph66%30.39 "Hg5 mi
3:00 PM48 °FBroken clouds.12 mph66%30.39 "Hg5 mi
2:30 PM48 °FPartly sunny.9 mph62%30.39 "Hg5 mi
2:00 PM48 °FPartly sunny.9 mph62%30.39 "Hg5 mi
1:30 PM48 °FPartly sunny.8 mph62%30.42 "Hg5 mi
1:00 PM48 °FPartly sunny.8 mph66%30.42 "Hg5 mi
12:30 PM48 °FPartly sunny.9 mph62%30.42 "Hg6 mi
12:00 PM48 °FPartly sunny.6 mph58%30.45 "HgN/A
11:30 AM46 °FPartly sunny.6 mph62%30.45 "HgN/A
11:00 AM46 °FBroken clouds.7 mph57%30.45 "HgN/A
10:30 AM46 °FPartly sunny.7 mph62%30.48 "HgN/A
10:00 AM46 °FBroken clouds.8 mph62%30.48 "HgN/A
9:30 AM46 °FBroken clouds.8 mph57%30.48 "HgN/A
9:00 AM46 °FPartly sunny.7 mph57%30.48 "HgN/A
8:30 AM45 °FPartly sunny.7 mph61%30.48 "HgN/A
8:00 AM45 °FScattered showers. Broken clouds.8 mph66%30.48 "HgN/A
6:30 AM43 °FPassing clouds.5 mph66%30.45 "HgN/A
6:00 AM43 °FPassing clouds.5 mph66%30.45 "HgN/A
5:30 AM43 °FPassing clouds.6 mph66%30.45 "HgN/A
5:00 AM43 °FPassing clouds.7 mph66%30.45 "HgN/A
4:30 AM43 °FPassing clouds.9 mph66%30.45 "HgN/A
4:00 AM43 °FPassing clouds.8 mph66%30.45 "HgN/A
3:30 AM43 °FPassing clouds.7 mph71%30.45 "HgN/A
3:00 AM45 °FPassing clouds.7 mph71%30.45 "HgN/A
2:30 AM45 °FPassing clouds.8 mph71%30.45 "HgN/A
2:00 AM45 °FPassing clouds.6 mph71%30.45 "HgN/A
Weather by CustomWeather, © 2016

See weather overviewHow to use our weather pages